ARIANE 5 R/B, 38553

Orbit data source: Space-Track

ARIANE 5 R/B, 38553 is space debris in HEO originally from a launch on Thu, 05 Jul 2012 UTC launched from the French Guiana (FRGUI). Debris objects in space refer to the collection of defunct objects orbiting the Earth. Examples of debris include non-operational satellites, rocket bodies, and fragments generated from explosions, collisions, or faulty payload assembly.

Loading next visibility...
Identifier
38553, 2012-035C
Orbit
HEO
Country
Flag of FRFR
Related business
Manufacturer
EADS/LV
Mission
Spacecraft
Bus & Motor
ESC-A, Unknown motor
Mass
~5,000 kg wet, ~5,000 kg dry
Launch date (UTC)
2012-07-05 (14 years ago)
Launch vehicle
Unknown
Launch site
French Guiana (FRGUI)
Object type
Payload
Rocket body
Debris
Shape & HBR
Cyl + 1 Nozzle, 3.5 m
Radar Cross Section
41.627 m², Large (>1 m²)

Expand to show TLE details & history
Last TLE update: 5 days ago

TLE from 5 days ago
0 ARIANE 5 R/B
1 38553U 12035C   26168.93819213  .00008209  00000-0  13894-2 0  9990
2 38553   6.6567 350.0947 7091002 286.9631  11.1577  2.53387181122193
Epoch: 2026-06-17T22:30Z
TLE epoch observation values (Epoch: 2026-06-17T22:30:59.800Z)
Latitude
-0.0004°
Longitude
106.12005°
Altitude
2,956.66 km
Speed
8.237 km/s
True Right ascension
23h 20m 13s
True Declination
0° 00' 01"
Sunlit
Object was in daylight at epoch
Visualization orbit readout
Latitude
Unknown
Longitude
Unknown
Altitude
Unknown
Speed
Unknown
Apparent Right ascension
Unknown
Apparent Declination
Unknown
Sunlit
N/A
Visualization observer readout
Local Sidereal Time
23:21:49
Azimuth
Unknown
Elevation
Unknown
Doppler factor
Unknown
Orbital elements
Apogee altitude
32,474.161 km
Perigee altitude
234.773 km
Semi-major axis
22,732.604 km
Eccentricity
0.7091
Inclination
6.6567°
RAAN
350.0947°
Arg. of periapsis
286.9631°
True anomaly
72.56719°
Mean anomaly
11.1577°
Eccentric anomaly
33.70041°
Mean motion
0.63324 °/min
Orbital period
568.5 mins
BSTAR
0.0013894
Loading maneuver chart data...
Computing Atmospheric mass density...
Loading historical data...
Loading historical data...
Loading historical data...
Loading historical data...
Loading historical data...
Loading historical data...
Loading historical data...

Documentation

Showing up to 5 results
|